Stations météo

réclame
Mon MeteoGroup
Guernsey, Grande-Bretagne (3894): Température de l'air & dewpoint: 13.01.2020 20:00:00 - 19.01.2020 20:00:00 (GMT)Guernsey, Grande-Bretagne (3894): Température de l'air -20cm & Température de l'air -100cm: 13.01.2020 20:00:00 - 19.01.2020 20:00:00 (GMT)Guernsey, Grande-Bretagne (3894): Vitesse du vent & gusts: 13.01.2020 20:00:00 - 19.01.2020 20:00:00 (GMT)Guernsey, Grande-Bretagne (3894): Direction du vent: 13.01.2020 20:00:00 - 19.01.2020 20:00:00 (GMT)Guernsey, Grande-Bretagne (3894): reduced air pressure: 13.01.2020 20:00:00 - 19.01.2020 20:00:00 (GMT)Guernsey, Grande-Bretagne (3894): visibility: 13.01.2020 20:00:00 - 19.01.2020 20:00:00 (GMT)Guernsey, Grande-Bretagne (3894): Quantités de précipitations: 13.01.2020 20:00:00 - 19.01.2020 20:00:00 (GMT)
Date & Time tt [°C] td [°C] tt -20cm [°C] tt -100cm [°C] ff [km/h] ff [knt] fx [km/h] fx [knt] dd ppp [hPa] vv [km] rr [mm]
19.01.2020 20:00:00 5,7 1,0 - - 9 5 - - NE 1048,4 10 -
19.01.2020 19:00:00 5,7 1,4 - - 11 6 - - NNE 1047,9 10 -
19.01.2020 18:00:00 5,4 1,6 - - 13 7 - - NNE 1047,3 10 0,0
19.01.2020 17:00:00 6,0 1,6 - - 13 7 - - NNE 1046,6 10 -
19.01.2020 16:00:00 6,9 1,9 - - 15 8 - - NE 1046,2 10 -
19.01.2020 15:00:00 7,5 2,3 - - 15 8 - - NE 1045,3 10 -
19.01.2020 14:00:00 7,6 2,1 - - 15 8 - - NE 1045,2 10 -
19.01.2020 13:00:00 7,8 1,8 - - 16 9 - - NE 1045,0 10 -
19.01.2020 12:00:00 7,6 1,4 - - 16 9 - - NE 1045,4 10 0,0
19.01.2020 11:00:00 7,2 1,3 - - 18 10 - - ENE 1044,6 10 -
19.01.2020 10:00:00 6,6 1,6 - - 16 9 - - NE 1043,9 10 -
19.01.2020 09:00:00 5,7 1,0 7,7 9,9 13 7 - - NE 1043,3 50 -
19.01.2020 08:00:00 5,3 1,3 - - 15 8 - - NNE 1042,3 10 -
19.01.2020 07:00:00 5,6 2,0 - - 16 9 - - NNE 1041,4 10 -
19.01.2020 06:00:00 5,3 1,8 - - 13 7 - - NNE 1040,4 10 0,0
19.01.2020 05:00:00 5,8 1,9 - - 15 8 - - NNE 1039,5 40 -
19.01.2020 04:00:00 5,6 1,3 - - 15 8 - - NNE 1039,2 10 -
19.01.2020 03:00:00 5,5 1,2 - - 13 7 - - NNE 1038,7 10 -
19.01.2020 02:00:00 5,4 0,6 - - 11 6 - - NNE 1038,1 10 -
19.01.2020 01:00:00 5,3 0,7 - - 11 6 - - NNE 1037,6 45 -
19.01.2020 00:00:00 5,5 0,7 - - 11 6 - - NNE 1036,8 10 0,0
18.01.2020 23:00:00 5,4 0,0 - - 11 6 - - NNE 1036,0 45 -
18.01.2020 22:00:00 5,5 -0,6 - - 11 6 - - NE 1034,7 10 -
18.01.2020 21:00:00 5,4 -0,1 - - 11 6 - - NE 1034,2 10 -
18.01.2020 20:00:00 5,8 -0,5 - - 13 7 - - NE 1033,0 10 -
18.01.2020 19:00:00 5,6 0,3 - - 13 7 - - NE 1031,6 10 -
18.01.2020 18:00:00 6,1 0,2 - - 21 11 - - NE 1030,8 10 0,0
18.01.2020 17:00:00 6,4 1,6 - - 18 10 - - NE 1029,8 10 -
18.01.2020 16:00:00 7,0 1,1 - - 15 8 - - NE 1029,2 10 -
18.01.2020 15:00:00 7,9 1,8 - - 16 9 - - ENE 1028,7 10 -
18.01.2020 14:00:00 8,2 2,2 - - 15 8 - - ENE 1028,1 50 -
18.01.2020 13:00:00 8,4 2,5 - - 15 8 - - E 1028,0 10 -
18.01.2020 12:00:00 8,2 3,1 - - 13 7 - - ENE 1028,0 10 0,0
18.01.2020 11:00:00 7,7 3,9 - - 11 6 - - E 1028,3 10 -
18.01.2020 10:00:00 6,8 3,9 - - 9 5 - - ENE 1027,7 10 -
18.01.2020 09:00:00 5,0 2,8 8,4 10,0 9 5 - - ENE 1027,3 45 -
18.01.2020 08:00:00 4,6 2,4 - - 9 5 - - NE 1026,8 10 -
18.01.2020 07:00:00 5,8 3,0 - - 8 4 - - NNE 1026,6 10 -
18.01.2020 06:00:00 6,1 3,3 - - 8 4 - - N 1026,2 10 -
18.01.2020 05:00:00 6,8 4,0 - - 5 3 - - NW 1025,9 10 -
18.01.2020 04:00:00 6,1 4,3 - - 9 5 - - NW 1025,4 10 -
18.01.2020 03:00:00 7,2 4,5 - - 13 7 - - WNW 1025,0 10 -
18.01.2020 02:00:00 6,6 4,2 - - 15 8 - - WNW 1024,9 10 -
18.01.2020 01:00:00 6,8 4,8 - - 31 17 - - WNW 1024,8 10 -
18.01.2020 00:00:00 6,6 3,7 - - 21 11 48 26 W 1024,2 10 -
17.01.2020 23:00:00 7,3 3,5 - - 24 13 - - W 1023,7 35 -
17.01.2020 22:00:00 6,0 2,9 - - 28 15 52 28 W 1023,5 10 -
17.01.2020 21:00:00 6,8 1,9 - - 29 16 48 26 W 1022,8 10 -
17.01.2020 20:00:00 6,1 4,3 - - 34 18 57 31 W 1022,0 25 -
17.01.2020 19:00:00 6,1 2,8 - - 42 23 59 32 W 1021,9 10 -
17.01.2020 18:00:00 6,3 2,7 - - 31 17 72 39 W 1021,0 10 -
17.01.2020 17:00:00 7,1 3,5 - - 28 15 50 27 WSW 1020,3 10 -
17.01.2020 16:00:00 6,6 2,3 - - 35 19 59 32 WSW 1020,1 10 -
17.01.2020 15:00:00 7,8 2,5 - - 34 18 57 31 W 1019,5 10 -
17.01.2020 14:00:00 8,4 2,5 - - 31 17 52 28 W 1018,8 20 -
17.01.2020 13:00:00 8,9 2,7 - - 34 18 52 28 W 1018,5 10 -
17.01.2020 12:00:00 8,6 1,5 - - 35 19 48 26 W 1018,0 10 -
17.01.2020 11:00:00 7,6 1,6 - - 35 19 61 33 W 1017,5 10 -
17.01.2020 10:00:00 8,6 3,8 - - 37 20 52 28 W 1010,4 10 -
17.01.2020 09:00:00 8,4 3,9 9,2 10,0 34 18 65 35 W 1015,2 10 -
17.01.2020 08:00:00 8,3 4,6 - - 41 22 65 35 W 1013,6 10 -
17.01.2020 07:00:00 8,9 5,4 - - 39 21 57 31 WSW 1012,1 10 -
17.01.2020 06:00:00 8,9 5,5 - - 37 20 55 30 WSW 1011,1 10 -
17.01.2020 05:00:00 9,4 6,4 - - 34 18 52 28 SW 1010,6 35 -
17.01.2020 04:00:00 9,8 7,1 - - 34 18 46 25 SW 1010,7 10 -
17.01.2020 03:00:00 10,2 8,1 - - 31 17 - - SSW 1010,6 10 -
17.01.2020 02:00:00 10,2 9,1 - - 24 13 - - S 1010,5 10 -
17.01.2020 01:00:00 10,0 9,1 - - 18 10 - - S 1010,4 10 -
17.01.2020 00:00:00 10,2 9,1 - - 22 12 - - SSW 1010,7 10 -
16.01.2020 23:00:00 10,2 9,0 - - 22 12 - - SSW 1010,8 25 -
16.01.2020 22:00:00 10,3 9,6 - - 18 10 - - S 1010,8 10 -
16.01.2020 21:00:00 10,3 9,6 - - 22 12 - - S 1011,0 10 -
16.01.2020 20:00:00 10,5 9,6 - - 22 12 46 25 S 1011,2 10 -
16.01.2020 19:00:00 10,4 9,7 - - 31 17 48 26 SSW 1011,0 10 -
16.01.2020 18:00:00 11,2 10,6 - - 35 19 57 31 S 1010,0 7 -
16.01.2020 17:00:00 11,3 10,1 - - 37 20 55 30 S 1009,8 5 -
16.01.2020 16:00:00 11,9 9,2 - - 35 19 59 32 S 1009,9 10 -
16.01.2020 15:00:00 12,0 8,8 - - 44 24 61 33 S 1010,0 10 -
16.01.2020 14:00:00 11,5 8,2 - - 42 23 55 30 SSE 1010,3 10 -
16.01.2020 13:00:00 10,9 7,6 - - 42 23 63 34 S 1011,1 10 -
16.01.2020 12:00:00 11,0 7,4 - - 39 21 63 34 S 1012,0 20 -
16.01.2020 11:00:00 10,5 7,6 - - 39 21 63 34 SSE 1012,9 20 -
16.01.2020 10:00:00 9,2 7,9 - - 44 24 61 33 S 1014,2 10 -
16.01.2020 09:00:00 9,4 7,5 9,0 10,0 37 20 55 30 SSE 1014,9 10 -
16.01.2020 08:00:00 9,0 7,0 - - 37 20 50 27 SSE 1014,9 10 -
16.01.2020 07:00:00 8,9 7,5 - - 28 15 48 26 SSE 1015,8 10 -
16.01.2020 06:00:00 8,8 6,9 - - 35 19 52 28 S 1016,6 10 0,0
16.01.2020 05:00:00 8,7 6,6 - - 37 20 50 27 S 1017,5 10 -
16.01.2020 04:00:00 8,6 6,5 - - 28 15 - - S 1018,4 10 -
16.01.2020 03:00:00 8,7 5,5 - - 28 15 - - S 1018,8 45 -
16.01.2020 02:00:00 8,7 5,3 - - 29 16 46 25 S 1019,1 10 -
16.01.2020 01:00:00 8,6 5,3 - - 28 15 - - S 1019,5 10 -
16.01.2020 00:00:00 8,9 5,5 - - 26 14 - - S 1019,7 45 0,0
15.01.2020 23:00:00 8,8 5,3 - - 26 14 - - SSW 1019,5 45 -
15.01.2020 22:00:00 8,7 5,3 - - 26 14 - - SSW 1019,4 10 -
15.01.2020 21:00:00 8,9 5,5 - - 26 14 - - SSW 1019,3 10 -
15.01.2020 20:00:00 9,0 4,9 - - 26 14 - - SSW 1018,9 10 -
15.01.2020 19:00:00 9,2 5,0 - - 24 13 - - SW 1018,5 10 -
15.01.2020 18:00:00 8,9 3,8 - - 24 13 - - WSW 1017,5 10 -
15.01.2020 17:00:00 9,0 4,2 - - 26 14 - - WSW 1016,4 45 -
15.01.2020 16:00:00 9,2 4,5 - - 22 12 - - WSW 1015,2 10 -
15.01.2020 15:00:00 10,1 4,9 - - 28 15 - - WSW 1013,7 10 -
15.01.2020 14:00:00 9,8 6,6 - - 26 14 - - WSW 1012,6 45 -
15.01.2020 13:00:00 8,9 5,6 - - 28 15 - - WSW 1011,9 10 -
15.01.2020 12:00:00 9,9 7,4 - - 24 13 - - WSW 1010,6 10 -
15.01.2020 11:00:00 8,3 6,5 - - 18 10 - - WSW 1009,8 10 -
15.01.2020 10:00:00 7,7 7,2 - - 18 10 - - W 1008,0 25 -
15.01.2020 09:00:00 6,8 6,4 9,5 9,9 2 1 - - - 1005,5 10 -
15.01.2020 08:00:00 6,8 5,9 - - 15 8 - - NW 1004,7 10 -
15.01.2020 07:00:00 6,6 5,3 - - 18 10 - - NW 1003,5 9 -
15.01.2020 06:00:00 7,9 7,8 - - 15 8 - - NW 1002,3 6 -
15.01.2020 05:00:00 9,1 8,7 - - 8 4 54 29 NW 1001,6 4,0 -
15.01.2020 04:00:00 11,3 10,0 - - 37 20 67 36 SSW 1000,9 8 -
15.01.2020 03:00:00 11,9 9,6 - - 42 23 72 39 SSW 1001,1 10 -
15.01.2020 02:00:00 11,7 9,8 - - 46 25 67 36 SSW 1000,4 10 -
15.01.2020 01:00:00 12,0 9,9 - - 44 24 67 36 SSW 1000,5 10 -
15.01.2020 00:00:00 11,6 10,0 - - 44 24 78 42 S 1000,5 10 -
14.01.2020 23:00:00 11,8 9,9 - - 52 28 72 39 SSW 1000,2 5 -
14.01.2020 22:00:00 11,8 9,8 - - 48 26 68 37 S 1000,1 10 -
14.01.2020 21:00:00 12,2 9,8 - - 50 27 74 40 SSW 1000,3 20 -
14.01.2020 20:00:00 12,0 9,9 - - 48 26 72 39 SSW 999,7 10 -
14.01.2020 19:00:00 12,2 10,1 - - 46 25 74 40 SSW 999,5 10 -
14.01.2020 18:00:00 12,1 10,3 - - 48 26 72 39 SSW 999,2 10 -
14.01.2020 17:00:00 11,9 10,8 - - 46 25 68 37 SSW 998,9 10 -
14.01.2020 16:00:00 12,4 10,8 - - 42 23 63 34 SSW 998,6 8 -
14.01.2020 15:00:00 12,6 11,0 - - 42 23 57 31 SSW 998,6 20 -
14.01.2020 14:00:00 12,5 11,3 - - 37 20 59 32 SSW 998,1 15 -
14.01.2020 13:00:00 12,3 11,4 - - 35 19 55 30 SSW 998,2 10 -
14.01.2020 12:00:00 12,2 11,3 - - 41 22 61 33 SSW 998,1 10 -
14.01.2020 11:00:00 11,1 10,6 - - 34 18 55 30 S 998,5 5 -
14.01.2020 10:00:00 10,7 9,8 - - 35 19 48 26 S 999,0 10 -
14.01.2020 09:00:00 10,2 9,3 9,0 10,0 28 15 - - S 999,8 10 -
14.01.2020 08:00:00 10,0 8,3 - - 29 16 46 25 SSW 1000,8 10 -
14.01.2020 07:00:00 9,9 8,2 - - 28 15 - - SSW 1001,1 25 -
14.01.2020 06:00:00 9,9 8,2 - - 28 15 - - SSW 1001,1 10 -
14.01.2020 05:00:00 9,9 7,8 - - 29 16 48 26 SW 1001,2 10 -
14.01.2020 04:00:00 9,8 7,4 - - 28 15 - - SW 1000,8 10 -
14.01.2020 03:00:00 9,7 7,3 - - 28 15 - - SW 1000,9 10 -
14.01.2020 02:00:00 9,6 7,4 - - 31 17 46 25 WSW 1000,6 10 -
14.01.2020 01:00:00 9,3 8,3 - - 29 16 48 26 SW 1000,4 10 -
14.01.2020 00:00:00 8,4 7,7 - - 28 15 - - WSW 1000,8 8 -
13.01.2020 23:00:00 7,7 7,0 - - 35 19 48 26 W 1001,2 4,5 -
13.01.2020 22:00:00 9,0 8,8 - - 24 13 65 35 WSW 1000,3 3,2 -
13.01.2020 21:00:00 10,6 9,9 - - 42 23 65 35 SSW 999,6 5 -
13.01.2020 20:00:00 10,6 9,3 - - 44 24 70 38 SSW 1000,4 8 -

tt = Température de l'air
td = dewpoint
tt -20cm = Température de l'air -20cm
tt -100cm = Température de l'air -100cm
ff = Vitesse du vent
fx = gusts
dd = Direction du vent
ppp = reduced air pressure
vv = visibility
rr = Quantités de précipitations

stations d'obs. à proximité